Fairbanks Eiels, AK

7:34 PM AKDT on April 21, 2018 (GMT -0800)
Eielson Air Force Base

Weather History for PAEI - March, 2014

Change the Weather History Date:

Sunday, March 2, 2014

  Actual Average Record
Temperature  
Mean Temperature 6 °F -  
Max Temperature 21 °F 17 °F 48 °F (1957)
Min Temperature -9 °F -7 °F -47 °F (1951)
Degree Days  
Heating Degree Days 59    
Moisture  
Dew Point -2 °F    
Average Humidity 77    
Maximum Humidity 87    
Minimum Humidity 61    
Precipitation  
Precipitation 0.00 in - - ()
Sea Level Pressure  
Sea Level Pressure 30.08 in    
Wind  
Wind Speed 0 mph (North)    
Max Wind Speed 4 mph    
Max Gust Speed -    
Visibility 10 miles    
Events      
Averages and records for this station are not official NWS values.
T = Trace of Precipitation, MM = Missing Value Source: NWS Daily Summary

Daily Weather History Graph

Daily Weather History Graph

Search for Another Location

Airport or City:

Astronomy

Mar. 02, 2014 Rise Set
Actual Time 7:52 AM AKST 6:09 PM AKST
Civil Twilight 7:04 AM AKST 6:58 PM AKST
Nautical Twilight 6:07 AM AKST 7:54 PM AKST
Astronomical Twilight 5:09 AM AKST 8:53 PM AKST
Moon 7:44 AM AKST (3/2) 9:15 PM AKST (3/2)
Length of Visible Light 11h 54m
Length of Day
10h 16m
Waxing Crescent, 3% of the Moon is Illuminated
Mar 2
Waxing Crescent
Mar 8
First Quarter
Mar 16
Full
Mar 23
Last Quarter
Mar 30
New

Hourly Weather History & Observations

Time (AKST) Temp. Windchill Dew Point Humidity Pressure Visibility Wind Dir Wind Speed Gust Speed Precip Events Conditions
12:58 AM -0.6 °F - -5.3 °F 81% 30.11 in 10.0 mi Calm Calm - N/A   Clear
1:58 AM -5.1 °F - -10.3 °F 78% 30.12 in 10.0 mi Calm Calm - N/A   Clear
2:58 AM -4.5 °F - -9.6 °F 79% 30.10 in 10.0 mi Calm Calm - N/A   Clear
3:58 AM -4.2 °F - -8.9 °F 80% 30.10 in 10.0 mi Calm Calm - N/A   Clear
4:58 AM -5.6 °F - -10.5 °F 79% 30.10 in 10.0 mi Calm Calm - N/A   Clear
5:58 AM -9.6 °F - -15.2 °F 76% 30.11 in 10.0 mi Calm Calm - N/A   Clear
6:58 AM -9.0 °F - -14.3 °F 78% 30.11 in 10.0 mi Calm Calm - N/A   Clear
7:58 AM -9.2 °F - -14.3 °F 79% 30.11 in 10.0 mi Calm Calm - N/A   Clear
8:58 AM -5.6 °F - -10.5 °F 79% 30.11 in 10.0 mi Calm Calm - N/A   Clear
9:58 AM -4.7 °F - -9.8 °F 79% 30.10 in 10.0 mi Calm Calm - N/A   Clear
10:58 AM 0.9 °F - -3.8 °F 81% 30.10 in 10.0 mi North 1.2 mph - N/A   Clear
11:58 AM 7.5 °F - 3.4 °F 83% 30.09 in 10.0 mi Calm Calm - N/A   Clear
12:58 PM 13.8 °F - 6.1 °F 71% 30.07 in 10.0 mi North 2.3 mph - N/A   Clear
1:58 PM 19.8 °F - 8.6 °F 62% 30.06 in 10.0 mi Calm Calm - N/A   Clear
2:58 PM 19.9 °F 14.9 °F 10.2 °F 66% 30.05 in 10.0 mi North 3.5 mph - N/A   Clear
3:58 PM 21.7 °F - 10.9 °F 63% 30.05 in 10.0 mi NNE 1.2 mph - N/A   Clear
4:58 PM 21.2 °F 16.4 °F 9.7 °F 61% 30.04 in 10.0 mi North 3.5 mph - N/A   Clear
5:58 PM 16.0 °F - 12.2 °F 85% 30.04 in 10.0 mi Calm Calm - N/A   Clear
6:58 PM 9.5 °F - 6.4 °F 87% 30.05 in 10.0 mi Calm Calm - N/A   Clear
7:58 PM 7.2 °F - 3.6 °F 85% 30.05 in 10.0 mi Calm Calm - N/A   Clear
8:58 PM 2.3 °F - -2.0 °F 82% 30.05 in 10.0 mi Calm Calm - N/A   Clear
9:58 PM 0.7 °F - -3.6 °F 82% 30.06 in 10.0 mi Calm Calm - N/A   Clear
10:58 PM -1.7 °F - -6.3 °F 80% 30.05 in 10.0 mi Calm Calm - N/A   Clear
11:58 PM -0.4 °F - -5.1 °F 81% 30.04 in 10.0 mi Calm Calm - N/A   Clear